Location: ???????
(54.6339°N, 39.4245°E)
Time: 06:18:26
(UTC+00:00)

Meteor 2-13 Rocket - Pass Details

Date: 19 May 2025
Orbit: 934 x 958 km, 82.5° (Epoch: 15 June)

Event Time Altitude Azimuth Distance (km) Brightness Sun altitude
Exits shadow 20:35:04 19° 192° (SSW) 2,127 5.7 -14.8°
Maximum altitude 20:39:44 86° 282° (WNW) 964 4.5 -14.9°
Drops below altitude 10° 20:45:54 10° 11° (NNE) 2,686 8.0 -15.1°
Sets 20:48:24 0° 12° (NNE) 3,632 8.9 -15.1°
